LOCATION_NAME,SAMPLE COLLECTION TIME,DOSE EQUIVALENT RATE (nSv/h),GAMMA COUNT RATE R02 (CPM),GAMMA COUNT RATE R03 (CPM),GAMMA COUNT RATE R04 (CPM),GAMMA COUNT RATE R05 (CPM),GAMMA COUNT RATE R06 (CPM),GAMMA COUNT RATE R07 (CPM),GAMMA COUNT RATE R08 (CPM),GAMMA COUNT RATE R09 (CPM),STATUS
UT: SALT LAKE CITY,01/01/2014 00:54:00,,2213.00,1474.00,445.00,266.00,143.00,181.00,105.00,38.00,APPROVED
UT: SALT LAKE CITY,01/01/2014 01:54:00,,2218.00,1491.00,448.00,262.00,144.00,187.00,107.00,40.00,APPROVED
UT: SALT LAKE CITY,01/01/2014 02:54:00,,2216.00,1488.00,450.00,266.00,142.00,183.00,108.00,41.00,APPROVED
UT: SALT LAKE CITY,01/01/2014 03:54:00,,2228.00,1495.00,451.00,263.00,143.00,187.00,108.00,39.00,APPROVED
UT: SALT LAKE CITY,01/01/2014 04:55:00,,2215.00,1504.00,451.00,266.00,144.00,188.00,110.00,40.00,APPROVED
UT: SALT LAKE CITY,01/01/2014 05:55:00,,2211.00,1496.00,456.00,268.00,145.00,186.00,109.00,40.00,APPROVED
UT: SALT LAKE CITY,01/01/2014 06:55:00,,2221.00,1500.00,456.00,269.00,143.00,188.00,107.00,41.00,APPROVED
UT: SALT LAKE CITY,01/01/2014 07:55:00,,2223.00,1499.00,457.00,267.00,146.00,188.00,109.00,41.00,APPROVED
UT: SALT LAKE CITY,01/01/2014 08:55:00,,2211.00,1487.00,454.00,265.00,145.00,185.00,110.00,41.00,APPROVED
UT: SALT LAKE CITY,01/01/2014 09:56:00,,2224.00,1515.00,457.00,271.00,144.00,188.00,111.00,40.00,APPROVED
UT: SALT LAKE CITY,01/01/2014 10:56:00,,2242.00,1532.00,464.00,278.00,147.00,192.00,112.00,40.00,APPROVED
UT: SALT LAKE CITY,01/01/2014 11:56:00,,2243.00,1544.00,469.00,279.00,148.00,195.00,113.00,43.00,APPROVED
UT: SALT LAKE CITY,01/01/2014 12:56:00,,2252.00,1551.00,476.00,282.00,147.00,197.00,115.00,42.00,APPROVED
UT: SALT LAKE CITY,01/01/2014 13:56:00,,2247.00,1569.00,477.00,285.00,150.00,204.00,114.00,40.00,APPROVED
UT: SALT LAKE CITY,01/01/2014 14:57:00,,2247.00,1559.00,482.00,285.00,148.00,202.00,112.00,41.00,APPROVED
UT: SALT LAKE CITY,01/01/2014 15:57:00,,2310.00,1631.00,500.00,291.00,156.00,208.00,118.00,42.00,APPROVED
UT: SALT LAKE CITY,01/01/2014 16:57:00,,2334.00,1650.00,507.00,297.00,155.00,211.00,117.00,42.00,APPROVED
UT: SALT LAKE CITY,01/01/2014 17:57:00,,2305.00,1563.00,479.00,289.00,154.00,199.00,114.00,41.00,APPROVED
UT: SALT LAKE CITY,01/01/2014 18:58:00,,2292.00,1539.00,460.00,276.00,145.00,190.00,111.00,41.00,APPROVED
UT: SALT LAKE CITY,01/01/2014 19:58:00,,2247.00,1492.00,441.00,270.00,142.00,181.00,107.00,41.00,APPROVED
UT: SALT LAKE CITY,01/01/2014 20:58:00,,2248.00,1486.00,437.00,266.00,141.00,177.00,107.00,40.00,APPROVED
UT: SALT LAKE CITY,01/01/2014 21:58:00,,2262.00,1521.00,445.00,275.00,145.00,182.00,110.00,42.00,APPROVED
UT: SALT LAKE CITY,01/01/2014 22:58:00,,2220.00,1480.00,436.00,264.00,139.00,179.00,107.00,42.00,APPROVED
UT: SALT LAKE CITY,01/01/2014 23:59:00,,2208.00,1462.00,431.00,267.00,142.00,177.00,107.00,42.00,APPROVED
UT: SALT LAKE CITY,01/02/2014 00:59:00,,2215.00,1495.00,444.00,270.00,141.00,184.00,108.00,41.00,APPROVED
UT: SALT LAKE CITY,01/02/2014 01:59:00,,2195.00,1464.00,446.00,266.00,142.00,184.00,105.00,41.00,APPROVED
UT: SALT LAKE CITY,01/02/2014 02:59:00,,2210.00,1486.00,458.00,267.00,140.00,187.00,110.00,39.00,APPROVED
UT: SALT LAKE CITY,01/02/2014 04:00:00,,2227.00,1515.00,463.00,265.00,145.00,189.00,110.00,41.00,APPROVED
UT: SALT LAKE CITY,01/02/2014 05:00:00,,2221.00,1539.00,470.00,273.00,147.00,196.00,112.00,41.00,APPROVED
UT: SALT LAKE CITY,01/02/2014 06:00:00,,2247.00,1530.00,468.00,274.00,145.00,194.00,112.00,41.00,APPROVED
UT: SALT LAKE CITY,01/02/2014 07:00:00,,2277.00,1605.00,485.00,292.00,153.00,203.00,117.00,41.00,APPROVED
UT: SALT LAKE CITY,01/02/2014 08:00:00,,2345.00,1677.00,510.00,303.00,159.00,219.00,122.00,43.00,APPROVED
UT: SALT LAKE CITY,01/02/2014 09:01:00,,2360.00,1718.00,528.00,313.00,163.00,225.00,123.00,43.00,APPROVED
UT: SALT LAKE CITY,01/02/2014 10:01:00,,2350.00,1714.00,532.00,313.00,164.00,224.00,124.00,43.00,APPROVED
UT: SALT LAKE CITY,01/02/2014 11:01:00,,2318.00,1664.00,515.00,301.00,158.00,215.00,121.00,42.00,APPROVED
UT: SALT LAKE CITY,01/02/2014 12:01:00,,2285.00,1625.00,509.00,287.00,155.00,213.00,117.00,45.00,APPROVED
UT: SALT LAKE CITY,01/02/2014 13:01:00,,2293.00,1627.00,511.00,292.00,156.00,212.00,117.00,42.00,APPROVED
UT: SALT LAKE CITY,01/02/2014 14:02:00,,2296.00,1617.00,506.00,286.00,155.00,210.00,117.00,41.00,APPROVED
UT: SALT LAKE CITY,01/02/2014 15:02:00,,2230.00,1537.00,484.00,273.00,150.00,201.00,110.00,40.00,APPROVED
UT: SALT LAKE CITY,01/02/2014 16:02:00,,2216.00,1500.00,471.00,262.00,142.00,192.00,107.00,39.00,APPROVED
UT: SALT LAKE CITY,01/02/2014 17:24:00,,2099.00,1296.00,382.00,207.00,120.00,149.00,88.00,34.00,APPROVED
UT: SALT LAKE CITY,01/02/2014 18:24:00,,2130.00,1365.00,409.00,226.00,131.00,163.00,98.00,37.00,APPROVED
UT: SALT LAKE CITY,01/02/2014 19:24:00,,2166.00,1373.00,409.00,231.00,132.00,163.00,96.00,37.00,APPROVED
UT: SALT LAKE CITY,01/02/2014 20:24:00,,2228.00,1438.00,418.00,248.00,137.00,166.00,100.00,38.00,APPROVED
UT: SALT LAKE CITY,01/02/2014 21:25:00,,2231.00,1446.00,423.00,257.00,136.00,172.00,104.00,40.00,APPROVED
UT: SALT LAKE CITY,01/02/2014 22:25:00,,2240.00,1464.00,428.00,258.00,138.00,173.00,107.00,41.00,APPROVED
UT: SALT LAKE CITY,01/02/2014 23:25:00,,2283.00,1500.00,439.00,269.00,141.00,184.00,106.00,42.00,APPROVED
UT: SALT LAKE CITY,01/03/2014 00:25:00,,2285.00,1564.00,461.00,291.00,147.00,189.00,115.00,43.00,APPROVED
UT: SALT LAKE CITY,01/03/2014 01:26:00,,2252.00,1536.00,466.00,280.00,149.00,193.00,111.00,41.00,APPROVED
UT: SALT LAKE CITY,01/03/2014 02:26:00,,2207.00,1472.00,453.00,265.00,145.00,187.00,108.00,39.00,APPROVED
UT: SALT LAKE CITY,01/03/2014 03:26:00,,2199.00,1442.00,435.00,253.00,138.00,175.00,104.00,39.00,APPROVED
UT: SALT LAKE CITY,01/03/2014 04:26:00,,2195.00,1432.00,441.00,246.00,137.00,175.00,104.00,38.00,APPROVED
UT: SALT LAKE CITY,01/03/2014 05:26:00,,2193.00,1437.00,440.00,251.00,140.00,176.00,102.00,39.00,APPROVED
UT: SALT LAKE CITY,01/03/2014 06:27:00,,2192.00,1464.00,443.00,252.00,138.00,181.00,103.00,39.00,APPROVED
UT: SALT LAKE CITY,01/03/2014 07:27:00,,2246.00,1501.00,457.00,256.00,143.00,186.00,106.00,39.00,APPROVED
UT: SALT LAKE CITY,01/03/2014 08:27:00,,2283.00,1597.00,486.00,282.00,150.00,203.00,115.00,42.00,APPROVED
UT: SALT LAKE CITY,01/03/2014 09:27:00,,2315.00,1666.00,520.00,299.00,162.00,216.00,119.00,43.00,APPROVED
UT: SALT LAKE CITY,01/03/2014 10:27:00,,2419.00,1809.00,564.00,321.00,171.00,239.00,127.00,45.00,APPROVED
UT: SALT LAKE CITY,01/03/2014 11:28:00,,2456.00,1798.00,566.00,326.00,170.00,240.00,131.00,45.00,APPROVED
UT: SALT LAKE CITY,01/03/2014 12:28:00,,2409.00,1725.00,540.00,313.00,166.00,228.00,125.00,43.00,APPROVED
UT: SALT LAKE CITY,01/03/2014 13:28:00,,2394.00,1721.00,550.00,310.00,163.00,229.00,124.00,44.00,APPROVED
UT: SALT LAKE CITY,01/03/2014 14:28:00,,2383.00,1741.00,550.00,308.00,162.00,231.00,124.00,44.00,APPROVED
UT: SALT LAKE CITY,01/03/2014 15:29:00,,2390.00,1762.00,549.00,312.00,166.00,238.00,125.00,44.00,APPROVED
UT: SALT LAKE CITY,01/03/2014 16:29:00,,2380.00,1708.00,542.00,302.00,165.00,227.00,122.00,43.00,APPROVED
UT: SALT LAKE CITY,01/03/2014 17:29:00,,2390.00,1656.00,522.00,292.00,157.00,215.00,116.00,43.00,APPROVED
UT: SALT LAKE CITY,01/03/2014 18:29:00,,2334.00,1567.00,489.00,274.00,150.00,200.00,112.00,41.00,APPROVED
UT: SALT LAKE CITY,01/03/2014 19:29:00,,2304.00,1544.00,469.00,273.00,147.00,192.00,113.00,41.00,APPROVED
UT: SALT LAKE CITY,01/03/2014 20:30:00,,2295.00,1521.00,452.00,264.00,147.00,188.00,109.00,42.00,APPROVED
UT: SALT LAKE CITY,01/03/2014 21:30:00,,2292.00,1502.00,449.00,266.00,144.00,183.00,108.00,41.00,APPROVED
UT: SALT LAKE CITY,01/03/2014 22:30:00,,2287.00,1535.00,463.00,272.00,146.00,188.00,108.00,39.00,APPROVED
UT: SALT LAKE CITY,01/03/2014 23:30:00,,2270.00,1504.00,453.00,261.00,139.00,185.00,108.00,39.00,APPROVED
UT: SALT LAKE CITY,01/04/2014 00:30:00,,2293.00,1543.00,462.00,275.00,146.00,188.00,110.00,39.00,APPROVED
UT: SALT LAKE CITY,01/04/2014 01:31:00,,2300.00,1566.00,471.00,285.00,151.00,197.00,111.00,40.00,APPROVED
UT: SALT LAKE CITY,01/04/2014 02:31:00,,2350.00,1604.00,486.00,288.00,152.00,200.00,116.00,42.00,APPROVED
UT: SALT LAKE CITY,01/04/2014 03:31:00,,2336.00,1658.00,499.00,303.00,160.00,208.00,119.00,44.00,APPROVED
UT: SALT LAKE CITY,01/04/2014 04:31:00,,2352.00,1627.00,499.00,298.00,156.00,205.00,118.00,42.00,APPROVED
UT: SALT LAKE CITY,01/04/2014 05:32:00,,2307.00,1613.00,491.00,296.00,155.00,206.00,119.00,43.00,APPROVED
UT: SALT LAKE CITY,01/04/2014 06:32:00,,2308.00,1621.00,491.00,296.00,153.00,205.00,117.00,43.00,APPROVED
UT: SALT LAKE CITY,01/04/2014 07:32:00,,2458.00,1796.00,547.00,332.00,169.00,233.00,126.00,43.00,APPROVED
UT: SALT LAKE CITY,01/04/2014 08:32:00,,3244.00,2445.00,733.00,444.00,213.00,307.00,163.00,56.00,APPROVED
UT: SALT LAKE CITY,01/04/2014 09:32:00,,2995.00,2200.00,687.00,412.00,198.00,284.00,151.00,53.00,APPROVED
UT: SALT LAKE CITY,01/04/2014 10:33:00,,2310.00,1584.00,499.00,287.00,151.00,205.00,115.00,41.00,APPROVED
UT: SALT LAKE CITY,01/04/2014 11:33:00,,2010.00,1298.00,409.00,225.00,126.00,162.00,95.00,35.00,APPROVED
UT: SALT LAKE CITY,01/04/2014 12:33:00,,1894.00,1177.00,363.00,197.00,118.00,144.00,86.00,36.00,APPROVED
UT: SALT LAKE CITY,01/04/2014 13:33:00,,1896.00,1170.00,356.00,192.00,115.00,139.00,84.00,34.00,APPROVED
UT: SALT LAKE CITY,01/04/2014 14:33:00,,1876.00,1153.00,357.00,185.00,115.00,137.00,85.00,35.00,APPROVED
UT: SALT LAKE CITY,01/04/2014 15:34:00,,1887.00,1166.00,363.00,190.00,113.00,143.00,84.00,34.00,APPROVED
UT: SALT LAKE CITY,01/04/2014 16:34:00,,1907.00,1173.00,363.00,190.00,114.00,141.00,84.00,33.00,APPROVED
UT: SALT LAKE CITY,01/04/2014 17:34:00,,1912.00,1174.00,357.00,190.00,114.00,140.00,86.00,33.00,APPROVED
UT: SALT LAKE CITY,01/04/2014 18:34:00,,1942.00,1179.00,360.00,190.00,113.00,134.00,83.00,34.00,APPROVED
UT: SALT LAKE CITY,01/04/2014 19:35:00,,1911.00,1153.00,353.00,186.00,113.00,132.00,82.00,34.00,APPROVED
UT: SALT LAKE CITY,01/04/2014 20:35:00,,1895.00,1113.00,338.00,175.00,111.00,126.00,84.00,32.00,APPROVED
UT: SALT LAKE CITY,01/04/2014 21:35:00,,1862.00,1102.00,333.00,173.00,108.00,124.00,81.00,31.00,APPROVED
UT: SALT LAKE CITY,01/04/2014 22:35:00,,1859.00,1106.00,333.00,175.00,107.00,122.00,79.00,31.00,APPROVED
UT: SALT LAKE CITY,01/04/2014 23:35:00,,1850.00,1093.00,332.00,172.00,109.00,126.00,79.00,32.00,APPROVED
UT: SALT LAKE CITY,01/05/2014 00:36:00,,1830.00,1076.00,325.00,163.00,106.00,119.00,76.00,31.00,APPROVED
UT: SALT LAKE CITY,01/05/2014 01:36:00,,1810.00,1055.00,324.00,162.00,102.00,118.00,76.00,31.00,APPROVED
UT: SALT LAKE CITY,01/05/2014 02:36:00,,1813.00,1068.00,329.00,167.00,106.00,122.00,76.00,31.00,APPROVED
UT: SALT LAKE CITY,01/05/2014 03:36:00,,1826.00,1075.00,326.00,167.00,106.00,125.00,76.00,31.00,APPROVED
UT: SALT LAKE CITY,01/05/2014 04:36:00,,1818.00,1072.00,331.00,167.00,104.00,127.00,74.00,32.00,APPROVED
UT: SALT LAKE CITY,01/05/2014 05:37:00,,1799.00,1054.00,328.00,164.00,102.00,125.00,76.00,31.00,APPROVED
UT: SALT LAKE CITY,01/05/2014 06:37:00,,1775.00,1032.00,322.00,160.00,101.00,122.00,75.00,31.00,APPROVED
UT: SALT LAKE CITY,01/05/2014 07:37:00,,1764.00,1024.00,324.00,160.00,105.00,118.00,76.00,31.00,APPROVED
UT: SALT LAKE CITY,01/05/2014 08:37:00,,1761.00,1041.00,324.00,160.00,101.00,120.00,74.00,31.00,APPROVED
UT: SALT LAKE CITY,01/05/2014 09:38:00,,1767.00,1036.00,325.00,164.00,104.00,118.00,74.00,31.00,APPROVED
UT: SALT LAKE CITY,01/05/2014 10:38:00,,1774.00,1042.00,327.00,164.00,103.00,124.00,75.00,29.00,APPROVED
UT: SALT LAKE CITY,01/05/2014 11:38:00,,1774.00,1045.00,325.00,157.00,103.00,123.00,73.00,30.00,APPROVED
UT: SALT LAKE CITY,01/05/2014 12:38:00,,1793.00,1058.00,331.00,165.00,103.00,125.00,74.00,31.00,APPROVED
UT: SALT LAKE CITY,01/05/2014 13:38:00,,1824.00,1080.00,337.00,165.00,107.00,129.00,72.00,32.00,APPROVED
UT: SALT LAKE CITY,01/05/2014 14:39:00,,1832.00,1079.00,340.00,162.00,104.00,139.00,60.00,32.00,APPROVED
UT: SALT LAKE CITY,01/05/2014 15:39:00,,1817.00,1089.00,341.00,168.00,108.00,132.00,74.00,32.00,APPROVED
UT: SALT LAKE CITY,01/05/2014 16:39:00,,1824.00,1080.00,337.00,172.00,107.00,131.00,75.00,32.00,APPROVED
UT: SALT LAKE CITY,01/05/2014 17:39:00,,1835.00,1079.00,335.00,169.00,105.00,125.00,76.00,32.00,APPROVED
UT: SALT LAKE CITY,01/05/2014 18:39:00,,1876.00,1099.00,334.00,171.00,109.00,128.00,76.00,32.00,APPROVED
UT: SALT LAKE CITY,01/05/2014 19:40:00,,1865.00,1090.00,333.00,173.00,107.00,124.00,77.00,31.00,APPROVED
UT: SALT LAKE CITY,01/05/2014 20:40:00,,1861.00,1088.00,327.00,173.00,105.00,121.00,78.00,32.00,APPROVED
UT: SALT LAKE CITY,01/05/2014 21:40:00,,1845.00,1077.00,324.00,165.00,105.00,121.00,80.00,32.00,APPROVED
UT: SALT LAKE CITY,01/05/2014 22:40:00,,1833.00,1061.00,322.00,162.00,106.00,119.00,76.00,32.00,APPROVED
UT: SALT LAKE CITY,01/05/2014 23:41:00,,1823.00,1053.00,320.00,163.00,104.00,118.00,78.00,30.00,APPROVED
UT: SALT LAKE CITY,01/06/2014 00:41:00,,1806.00,1047.00,322.00,160.00,103.00,118.00,77.00,31.00,APPROVED
UT: SALT LAKE CITY,01/06/2014 01:41:00,,1793.00,1049.00,326.00,166.00,106.00,120.00,75.00,32.00,APPROVED
UT: SALT LAKE CITY,01/06/2014 02:41:00,,1795.00,1064.00,327.00,163.00,105.00,124.00,75.00,32.00,APPROVED
UT: SALT LAKE CITY,01/06/2014 03:41:00,,1782.00,1050.00,334.00,164.00,104.00,126.00,76.00,32.00,APPROVED
UT: SALT LAKE CITY,01/06/2014 04:42:00,,1804.00,1076.00,334.00,166.00,106.00,126.00,74.00,31.00,APPROVED
UT: SALT LAKE CITY,01/06/2014 05:42:00,,1840.00,1110.00,346.00,176.00,112.00,131.00,79.00,31.00,APPROVED
UT: SALT LAKE CITY,01/06/2014 06:42:00,,1852.00,1114.00,348.00,176.00,111.00,133.00,77.00,32.00,APPROVED
UT: SALT LAKE CITY,01/06/2014 07:42:00,,1837.00,1105.00,347.00,175.00,108.00,134.00,78.00,31.00,APPROVED
UT: SALT LAKE CITY,01/06/2014 08:42:00,,1841.00,1115.00,347.00,174.00,109.00,132.00,78.00,32.00,APPROVED
UT: SALT LAKE CITY,01/06/2014 09:43:00,,1849.00,1115.00,347.00,179.00,110.00,133.00,78.00,32.00,APPROVED
UT: SALT LAKE CITY,01/06/2014 10:43:00,,1873.00,1136.00,349.00,180.00,111.00,137.00,78.00,33.00,APPROVED
UT: SALT LAKE CITY,01/06/2014 11:43:00,,1885.00,1159.00,362.00,181.00,114.00,139.00,80.00,32.00,APPROVED
UT: SALT LAKE CITY,01/06/2014 12:43:00,,1877.00,1162.00,364.00,183.00,113.00,141.00,80.00,33.00,APPROVED
UT: SALT LAKE CITY,01/06/2014 13:44:00,,1881.00,1149.00,362.00,183.00,113.00,138.00,80.00,35.00,APPROVED
UT: SALT LAKE CITY,01/06/2014 14:44:00,,1880.00,1158.00,363.00,183.00,114.00,139.00,78.00,33.00,APPROVED
UT: SALT LAKE CITY,01/06/2014 16:23:00,,1819.00,1068.00,326.00,165.00,105.00,123.00,73.00,31.00,APPROVED
UT: SALT LAKE CITY,01/06/2014 17:23:00,,1894.00,1136.00,351.00,179.00,112.00,132.00,82.00,32.00,APPROVED
UT: SALT LAKE CITY,01/06/2014 18:23:00,,1929.00,1155.00,351.00,182.00,113.00,134.00,82.00,32.00,APPROVED
UT: SALT LAKE CITY,01/06/2014 19:23:00,,1925.00,1162.00,350.00,182.00,112.00,134.00,82.00,32.00,APPROVED
UT: SALT LAKE CITY,01/06/2014 20:24:00,,1921.00,1156.00,345.00,186.00,111.00,131.00,81.00,32.00,APPROVED
UT: SALT LAKE CITY,01/06/2014 21:24:00,,1907.00,1136.00,343.00,180.00,112.00,130.00,82.00,33.00,APPROVED
UT: SALT LAKE CITY,01/06/2014 22:24:00,,1936.00,1168.00,347.00,188.00,113.00,134.00,85.00,33.00,APPROVED
UT: SALT LAKE CITY,01/06/2014 23:24:00,,1946.00,1183.00,355.00,192.00,115.00,135.00,84.00,34.00,APPROVED
UT: SALT LAKE CITY,01/07/2014 00:24:00,,1940.00,1173.00,347.00,189.00,114.00,132.00,84.00,34.00,APPROVED
UT: SALT LAKE CITY,01/07/2014 01:25:00,,1932.00,1164.00,349.00,186.00,112.00,133.00,83.00,34.00,APPROVED
UT: SALT LAKE CITY,01/07/2014 02:25:00,,1942.00,1175.00,361.00,189.00,111.00,138.00,84.00,33.00,APPROVED
UT: SALT LAKE CITY,01/07/2014 03:25:00,,1956.00,1190.00,364.00,191.00,117.00,144.00,82.00,33.00,APPROVED
UT: SALT LAKE CITY,01/07/2014 04:25:00,,1951.00,1191.00,370.00,190.00,115.00,143.00,84.00,34.00,APPROVED
UT: SALT LAKE CITY,01/07/2014 05:26:00,,1961.00,1193.00,367.00,194.00,115.00,142.00,84.00,32.00,APPROVED
UT: SALT LAKE CITY,01/07/2014 06:26:00,,1950.00,1195.00,363.00,195.00,116.00,144.00,84.00,33.00,APPROVED
UT: SALT LAKE CITY,01/07/2014 07:26:00,,1952.00,1187.00,366.00,190.00,114.00,145.00,84.00,34.00,APPROVED
UT: SALT LAKE CITY,01/07/2014 08:26:00,,1965.00,1208.00,370.00,193.00,118.00,142.00,83.00,34.00,APPROVED
UT: SALT LAKE CITY,01/07/2014 09:26:00,,1985.00,1227.00,378.00,201.00,117.00,145.00,85.00,34.00,APPROVED
UT: SALT LAKE CITY,01/07/2014 10:27:00,,2043.00,1290.00,398.00,211.00,125.00,155.00,90.00,34.00,APPROVED
UT: SALT LAKE CITY,01/07/2014 11:27:00,,2023.00,1283.00,401.00,210.00,123.00,158.00,91.00,36.00,APPROVED
UT: SALT LAKE CITY,01/07/2014 12:27:00,,2036.00,1294.00,392.00,211.00,124.00,155.00,89.00,35.00,APPROVED
UT: SALT LAKE CITY,01/07/2014 13:27:00,,2068.00,1315.00,400.00,212.00,127.00,160.00,91.00,36.00,APPROVED
UT: SALT LAKE CITY,01/07/2014 14:27:00,,2044.00,1286.00,401.00,213.00,124.00,157.00,91.00,35.00,APPROVED
UT: SALT LAKE CITY,01/07/2014 15:28:00,,2020.00,1265.00,392.00,202.00,121.00,155.00,88.00,35.00,APPROVED
UT: SALT LAKE CITY,01/07/2014 16:28:00,,2043.00,1279.00,397.00,208.00,123.00,154.00,87.00,36.00,APPROVED
UT: SALT LAKE CITY,01/07/2014 17:28:00,,2068.00,1298.00,395.00,211.00,123.00,154.00,91.00,35.00,APPROVED
UT: SALT LAKE CITY,01/07/2014 18:28:00,,2056.00,1294.00,392.00,214.00,125.00,151.00,90.00,34.00,APPROVED
UT: SALT LAKE CITY,01/07/2014 19:29:00,,2059.00,1280.00,385.00,210.00,125.00,150.00,90.00,35.00,APPROVED
UT: SALT LAKE CITY,01/07/2014 20:29:00,,2058.00,1279.00,386.00,212.00,121.00,149.00,88.00,35.00,APPROVED
UT: SALT LAKE CITY,01/07/2014 21:29:00,,2083.00,1303.00,392.00,216.00,124.00,152.00,92.00,35.00,APPROVED
UT: SALT LAKE CITY,01/07/2014 22:29:00,,2065.00,1306.00,396.00,219.00,126.00,157.00,94.00,36.00,APPROVED
UT: SALT LAKE CITY,01/07/2014 23:29:00,,2100.00,1334.00,400.00,225.00,123.00,154.00,94.00,36.00,APPROVED
UT: SALT LAKE CITY,01/08/2014 00:30:00,,2112.00,1355.00,410.00,231.00,128.00,161.00,96.00,37.00,APPROVED
UT: SALT LAKE CITY,01/08/2014 01:30:00,,2061.00,1302.00,394.00,218.00,124.00,157.00,94.00,36.00,APPROVED
UT: SALT LAKE CITY,01/08/2014 02:30:00,,2029.00,1273.00,389.00,209.00,122.00,153.00,92.00,34.00,APPROVED
UT: SALT LAKE CITY,01/08/2014 03:30:00,,2062.00,1282.00,389.00,215.00,122.00,154.00,91.00,34.00,APPROVED
UT: SALT LAKE CITY,01/08/2014 04:30:00,,2053.00,1285.00,392.00,218.00,122.00,156.00,90.00,36.00,APPROVED
UT: SALT LAKE CITY,01/08/2014 05:31:00,,2068.00,1301.00,393.00,218.00,124.00,152.00,92.00,36.00,APPROVED
UT: SALT LAKE CITY,01/08/2014 06:31:00,,2050.00,1311.00,402.00,217.00,126.00,156.00,93.00,35.00,APPROVED
UT: SALT LAKE CITY,01/08/2014 07:31:00,,2073.00,1311.00,395.00,217.00,127.00,156.00,93.00,36.00,APPROVED
UT: SALT LAKE CITY,01/08/2014 08:31:00,,2066.00,1309.00,396.00,218.00,128.00,152.00,93.00,35.00,APPROVED
UT: SALT LAKE CITY,01/08/2014 09:32:00,,2104.00,1346.00,404.00,225.00,128.00,159.00,95.00,38.00,APPROVED
UT: SALT LAKE CITY,01/08/2014 10:32:00,,2143.00,1395.00,414.00,235.00,129.00,166.00,99.00,39.00,APPROVED
UT: SALT LAKE CITY,01/08/2014 11:32:00,,2122.00,1383.00,420.00,236.00,132.00,170.00,100.00,38.00,APPROVED
UT: SALT LAKE CITY,01/08/2014 12:32:00,,2161.00,1420.00,421.00,242.00,134.00,172.00,101.00,39.00,APPROVED
UT: SALT LAKE CITY,01/08/2014 13:32:00,,2356.00,1597.00,478.00,277.00,150.00,193.00,110.00,40.00,APPROVED
UT: SALT LAKE CITY,01/08/2014 14:33:00,,2328.00,1593.00,481.00,277.00,151.00,196.00,110.00,40.00,APPROVED
UT: SALT LAKE CITY,01/08/2014 15:33:00,,2178.00,1442.00,449.00,254.00,136.00,177.00,102.00,39.00,APPROVED
UT: SALT LAKE CITY,01/08/2014 16:33:00,,2148.00,1403.00,432.00,238.00,135.00,175.00,99.00,39.00,APPROVED
UT: SALT LAKE CITY,01/08/2014 17:33:00,,2160.00,1401.00,428.00,240.00,133.00,169.00,99.00,37.00,APPROVED
UT: SALT LAKE CITY,01/08/2014 18:34:00,,2175.00,1443.00,432.00,246.00,135.00,174.00,103.00,37.00,APPROVED
UT: SALT LAKE CITY,01/08/2014 19:34:00,,2265.00,1510.00,451.00,267.00,141.00,185.00,108.00,40.00,APPROVED
UT: SALT LAKE CITY,01/08/2014 20:34:00,,2611.00,1830.00,536.00,330.00,164.00,220.00,125.00,45.00,APPROVED
UT: SALT LAKE CITY,01/08/2014 21:34:00,,2638.00,1842.00,556.00,341.00,168.00,227.00,128.00,46.00,APPROVED
UT: SALT LAKE CITY,01/08/2014 22:34:00,,2330.00,1590.00,482.00,290.00,150.00,198.00,116.00,43.00,APPROVED
UT: SALT LAKE CITY,01/08/2014 23:35:00,,2145.00,1424.00,435.00,253.00,135.00,174.00,104.00,41.00,APPROVED
UT: SALT LAKE CITY,01/09/2014 00:35:00,,2088.00,1370.00,415.00,245.00,132.00,171.00,101.00,37.00,APPROVED
UT: SALT LAKE CITY,01/09/2014 01:35:00,,2087.00,1387.00,421.00,247.00,133.00,171.00,99.00,39.00,APPROVED
UT: SALT LAKE CITY,01/09/2014 02:35:00,,2093.00,1409.00,428.00,254.00,136.00,178.00,104.00,39.00,APPROVED
UT: SALT LAKE CITY,01/09/2014 03:35:00,,2108.00,1425.00,432.00,254.00,136.00,180.00,102.00,39.00,APPROVED
UT: SALT LAKE CITY,01/09/2014 04:36:00,,2076.00,1400.00,424.00,251.00,136.00,177.00,101.00,39.00,APPROVED
UT: SALT LAKE CITY,01/09/2014 05:36:00,,2066.00,1375.00,422.00,246.00,131.00,174.00,99.00,36.00,APPROVED
UT: SALT LAKE CITY,01/09/2014 06:36:00,,2033.00,1348.00,412.00,245.00,132.00,170.00,99.00,37.00,APPROVED
UT: SALT LAKE CITY,01/09/2014 07:36:00,,2000.00,1303.00,404.00,226.00,126.00,161.00,96.00,38.00,APPROVED
UT: SALT LAKE CITY,01/09/2014 08:37:00,,1964.00,1268.00,395.00,222.00,123.00,157.00,93.00,35.00,APPROVED
UT: SALT LAKE CITY,01/09/2014 09:37:00,,1971.00,1292.00,397.00,223.00,128.00,160.00,92.00,36.00,APPROVED
UT: SALT LAKE CITY,01/09/2014 10:37:00,,2002.00,1303.00,406.00,227.00,126.00,161.00,94.00,36.00,APPROVED
UT: SALT LAKE CITY,01/09/2014 11:37:00,,2041.00,1364.00,418.00,237.00,132.00,171.00,99.00,38.00,APPROVED
UT: SALT LAKE CITY,01/09/2014 12:37:00,,2015.00,1327.00,409.00,233.00,129.00,166.00,96.00,37.00,APPROVED
UT: SALT LAKE CITY,01/09/2014 13:38:00,,1998.00,1308.00,406.00,228.00,127.00,162.00,95.00,36.00,APPROVED
UT: SALT LAKE CITY,01/09/2014 14:38:00,,1991.00,1298.00,399.00,224.00,127.00,160.00,98.00,37.00,APPROVED
UT: SALT LAKE CITY,01/09/2014 15:38:00,,2001.00,1287.00,390.00,222.00,124.00,156.00,93.00,38.00,APPROVED
UT: SALT LAKE CITY,01/09/2014 16:53:00,,2040.00,1261.00,374.00,204.00,119.00,142.00,89.00,35.00,APPROVED
UT: SALT LAKE CITY,01/09/2014 17:53:00,,2251.00,1486.00,444.00,261.00,137.00,177.00,103.00,40.00,APPROVED
UT: SALT LAKE CITY,01/09/2014 18:53:00,,2161.00,1429.00,428.00,247.00,135.00,170.00,98.00,38.00,APPROVED
UT: SALT LAKE CITY,01/09/2014 19:53:00,,2307.00,1549.00,459.00,270.00,143.00,187.00,106.00,40.00,APPROVED
UT: SALT LAKE CITY,01/09/2014 20:54:00,,2721.00,1885.00,554.00,334.00,167.00,224.00,126.00,47.00,APPROVED
UT: SALT LAKE CITY,01/09/2014 21:54:00,,2769.00,1914.00,576.00,335.00,169.00,232.00,128.00,45.00,APPROVED
UT: SALT LAKE CITY,01/09/2014 22:54:00,,2439.00,1652.00,504.00,298.00,152.00,205.00,115.00,43.00,APPROVED
UT: SALT LAKE CITY,01/09/2014 23:54:00,,1948.00,1222.00,379.00,211.00,115.00,149.00,89.00,35.00,APPROVED
UT: SALT LAKE CITY,01/10/2014 00:54:00,,1807.00,1101.00,341.00,183.00,109.00,130.00,80.00,32.00,APPROVED
UT: SALT LAKE CITY,01/10/2014 01:55:00,,1764.00,1062.00,328.00,172.00,105.00,126.00,78.00,32.00,APPROVED
UT: SALT LAKE CITY,01/10/2014 02:55:00,,1749.00,1037.00,323.00,169.00,104.00,122.00,74.00,32.00,APPROVED
UT: SALT LAKE CITY,01/10/2014 03:55:00,,1724.00,1019.00,318.00,162.00,101.00,120.00,73.00,31.00,APPROVED
UT: SALT LAKE CITY,01/10/2014 04:55:00,,1722.00,1019.00,314.00,164.00,102.00,119.00,73.00,30.00,APPROVED
UT: SALT LAKE CITY,01/10/2014 05:55:00,,1710.00,987.00,305.00,156.00,99.00,116.00,71.00,31.00,APPROVED
UT: SALT LAKE CITY,01/10/2014 06:56:00,,1715.00,993.00,307.00,155.00,99.00,113.00,72.00,30.00,APPROVED
UT: SALT LAKE CITY,01/10/2014 07:56:00,,1724.00,1011.00,307.00,153.00,97.00,115.00,72.00,30.00,APPROVED
UT: SALT LAKE CITY,01/10/2014 08:56:00,,1733.00,1000.00,305.00,157.00,98.00,116.00,73.00,30.00,APPROVED
UT: SALT LAKE CITY,01/10/2014 09:56:00,,1723.00,994.00,308.00,152.00,96.00,114.00,71.00,30.00,APPROVED